Regional Weather Roundup
Issued by NWS Jackson, KY

Home | Current Version | Previous Version | Text Only | Print | Product List | Glossary Off
Versions: 1 2 3 4 5 6 7 8 9 10 11 12 13 14 15 16 17 18 19 20 21 22 23 24 25 26 27 28

000
ASUS43 KJKL 281710
RWRJKL

EAST KENTUCKY HOURLY WEATHER ROUNDUP
NATIONAL WEATHER SERVICE JACKSON KY
100 PM EDT TUE MAR 28 2017

NOTE: "FAIR" INDICATES FEW OR NO CLOUDS BELOW 12,000 FEET WITH
NO SIGNIFICANT WEATHER AND/OR OBSTRUCTIONS TO VISIBILITY.

* THESE REPORTS ARE NOT UNDER NWS QUALITY CONTROL AND MAY NOT
  REPORT WEATHER SUCH AS PRECIPITATION AND FOG.

KYZ079-080-083-085-087-088-110-112-115-119-120-281800
...EASTERN KENTUCKY...

CITY           SKY/WX    TMP DP  RH WIND       PRES   REMARKS
JACKSON        CLOUDY    61  54  77 W8G17     29.99S
LONDON         CLOUDY    62  53  72 W7        30.01F
SOMERSET*      PTSUNNY   59  50  72 W6        30.03S
MONTICELLO*    CLOUDY    60  54  80 W14       30.03F
WILLIAMSBURG*  CLOUDY    59  57  94 NW5       30.02S
MIDDLESBORO*   CLOUDY    65  52  63 W8        30.01S
HARLAN APT*    CLOUDY    61  52  72 SW5       30.01S
PIKE CO APT*   CLOUDY    58  58 100 SW3       29.99S
BIG SANDY APT* DRIZZLE   60  54  82 W5        29.98S
MOREHEAD APT*  CLOUDY    59  55  88 NW7G14    30.00S
ASHLAND*       CLOUDY    59  55  88 W7        29.95S
$$

KYZ035-036-041-042-044-050-067-078-099-281800
...CENTRAL KENTUCKY...

CITY           SKY/WX    TMP DP  RH WIND       PRES   REMARKS
MT STERLING*   CLOUDY    59  54  82 NW3       30.00S
FLEMING/MASON* CLOUDY    58  55  89 NW3       29.99S
DANVILLE*      CLOUDY    61  52  72 W3        30.02R
LEXINGTON      CLOUDY    60  53  77 NW5       30.00R
FRANKFORT      CLOUDY    60  53  77 VRB5      30.00R
LOUISVILLE     PTSUNNY   65  52  62 N9        30.00S
LEBANON*       CLOUDY    57  55  94 W7        30.02R
GLASGOW*       CLOUDY    60  52  75 CALM      30.02S
BOWLING GREEN  CLOUDY    62  55  77 W5        30.03S
$$

KYZ091>093-OHZ055-061-077-WVZ005-015-034-035-042-281800
...SOUTHERN OHIO/WEST VIRGINIA...

CITY           SKY/WX    TMP DP  RH WIND       PRES   REMARKS
COVINGTON      CLOUDY    61  54  77 N13       29.99R
COLUMBUS       CLOUDY    55  50  83 NW13      29.98R
DAYTON         CLOUDY    52  49  89 N10       30.02R
WILMINGTON     CLOUDY    57  53  86 N9        29.98R
HUNTINGTON     CLOUDY    60  53  77 SW9       29.96R
CHARLESTON     CLOUDY    62  54  74 W12G17    29.94R
PINEVILLE*     CLOUDY    61  53  75 MISG      30.02S
BECKLEY        CLOUDY    57  51  80 W10       29.96S
LOGAN CO APT*  PTSUNNY   61  55  82 CALM      29.96F
$$

VAZ002-007-008-TNZ017-027-036-066-071-281800
...SOUTHWEST VIRGINIA/EAST TENNESSEE...

CITY           SKY/WX    TMP DP  RH WIND       PRES   REMARKS
WISE*          CLOUDY    55  54  94 NW9       30.02S
JONESVILLE*      N/A     63  54  72 W6        30.02F
ABINGDON*      CLOUDY    64  54  70 W13       29.99S
BRISTOL        CLOUDY    64  52  64 W13G20    29.99S
MORRISTOWN*    CLOUDY    64  55  72 NW8       29.99S
SEVIERVILLE*   CLOUDY    64  54  68 W6        30.00S
KNOXVILLE      PTSUNNY   64  56  75 SW3       30.00S
LAFOLLETTE*    PTSUNNY   66  52  59 VRB6      30.03S
OAK RIDGE      CLOUDY    71  51  49 W8        30.00F
CROSSVILLE     PTSUNNY   60  52  74 W8        30.03F
NASHVILLE      CLOUDY    66  51  58 N6        30.03S
$$

...KEY TO REMARKS...
VSB - VISIBILITY IN MILES
WCI - WIND CHILL INDEX
HX  - HEAT INDEX

$$




USA.gov is the U.S. government's official web portal to all federal, state and local government web resources and services.